DMSP 5D-2 F13 DEB, 40468

Orbit data source: Space-Track

DMSP 5D-2 F13 DEB, 40468 is space debris in SSO originally from a launch on Fri, 24 Mar 1995 UTC launched from the Air Force Western Test Range (AFWTR). Debris objects in space refer to the collection of defunct objects orbiting the Earth. Examples of debris include non-operational satellites, rocket bodies, and fragments generated from explosions, collisions, or faulty payload assembly.

Loading next visibility...
Identifier
40468, 1995-015BL
Orbit
SSO
Country
Flag of USUS
Related business
Manufacturer
Unknown
Mission
Spacecraft
Bus & Motor
Unknown
Mass
Unknown
Launch date (UTC)
1995-03-24 (31 years ago)
Launch vehicle
Unknown
Launch site
Air Force Western Test Range (AFWTR)
Object type
Payload
Rocket body
Debris
Shape & HBR
Unknown shape, 0.1 m
Radar Cross Section
Medium (>0.1 m² and <1 m²)

Expand to show TLE details & history
Last TLE update: 1 day ago

TLE from 1 day ago
0 DMSP 5D-2 F13 DEB
1 40468U 95015BL  26149.58884727  .00006065  00000-0  18191-2 0  9992
2 40468  98.6296 192.5402 0005747 294.8464  65.2128 14.43109759583628
Epoch: 2026-05-29T14:07Z
TLE epoch observation values (Epoch: 2026-05-29T14:07:56.404Z)
Latitude
0.00004°
Longitude
93.43811°
Altitude
749.475 km
Speed
7.481 km/s
True Right ascension
12h 50m 09s
True Declination
0° 00' 00"
Sunlit
Object was in full shadow at epoch
Visualization orbit readout
Latitude
Unknown
Longitude
Unknown
Altitude
Unknown
Speed
Unknown
Apparent Right ascension
Unknown
Apparent Declination
Unknown
Sunlit
N/A
Visualization observer readout
Local Sidereal Time
04:53:12
Azimuth
Unknown
Elevation
Unknown
Doppler factor
Unknown
Orbital elements
Apogee altitude
749.46 km
Perigee altitude
741.272 km
Semi-major axis
7,123.503 km
Eccentricity
0.00057
Inclination
98.6296°
RAAN
192.5402°
Arg. of periapsis
294.8464°
True anomaly
65.27261°
Mean anomaly
65.2128°
Eccentric anomaly
65.2427°
Mean motion
3.60996 °/min
Orbital period
99.72 mins
BSTAR
0.0018191

Documentation

Showing up to 5 results
|